Location: Unspecified
(40.7945°N, 0.0000°E)
Time: 14:49:47
(UTC+00:00)

METEOR M2 - Pass Details

Date: 08 August 2020
Orbit: 819 x 827 km, 98.5° (Epoch: 23 September)

Event Time Altitude Azimuth Distance (km) Brightness Sun altitude
Rises 21:01:01 0° 220° (SW) 3,350 ? -19.1°
Reaches altitude 10° 21:05:20 10° 254° (WSW) 2,423 ? -19.7°
Maximum altitude 21:06:57 11° 272° (W) 2,332 ? -19.9°
Drops below altitude 10° 21:08:35 10° 290° (WNW) 2,426 ? -20.1°
Sets 21:12:56 0° 323° (NW) 3,364 ? -20.7°
